Weather History for Rutherfordton, NC

Change the Weather History Date:

Wednesday, April 10, 2013

  Actual Average (KAVL) Record (KAVL)
Temperature  
Mean Temperature 68 °F 54 °F  
Max Temperature 84 °F 66 °F 87 °F (2001)
Min Temperature 52 °F 41 °F 23 °F (1985)
Degree Days  
Heating Degree Days 0 11  
Month to date heating degree days 126  
Since 1 July heating degree days 3898  
Cooling Degree Days 3 0  
Month to date cooling degree days 0  
Year to date cooling degree days 1  
Growing Degree Days 18 (Base 50)    
Moisture  
Dew Point 55 °F    
Average Humidity 60    
Maximum Humidity 93    
Minimum Humidity 35    
Precipitation  
Precipitation 0.00 in 0.12 in 1.80 in (1870)
Month to date precipitation 1.14  
Year to date precipitation 12.40  
Snow  
Snow 0.00 in 0.00 in 4.00 in (2003)
Month to date snowfall 0.4  
Since 1 July snowfall 9.6  
Snow Depth -    
Sea Level Pressure  
Sea Level Pressure 30.06 in    
Wind  
Wind Speed 5 mph (South)    
Max Wind Speed 16 mph    
Max Gust Speed 26 mph    
Visibility 10 miles    
Events      
T = Trace of Precipitation, MM = Missing Value Source: NWS Daily Summary

Daily Weather History Graph

Daily Weather History Graph

Search for Another Location

Airport:

Trip Planner

Search our weather history database for the weather conditions in past years. The results will help you decide how hot, cold, wet, or windy it might be!

Date:

Astronomy

Apr. 10, 2013 Rise Set
Actual Time 7:01 AM EDT 7:56 PM EDT
Civil Twilight 6:35 AM EDT 8:22 PM EDT
Nautical Twilight 6:04 AM EDT 8:53 PM EDT
Astronomical Twilight 5:33 AM EDT 9:25 PM EDT
Moon 6:58 AM EDT (4/10) 8:29 PM EDT (4/10)
Length of Visible Light 13h 47m
Length of Day
12h 55m
New Moon, 0% of the Moon is Illuminated
Apr 10
New Moon
Apr 18
First Quarter
Apr 25
Full
May 2
Last Quarter
May 9
New

Hourly Weather History & Observations

Time (EDT) Temp. Heat Index Dew Point Humidity Pressure Visibility Wind Dir Wind Speed Gust Speed Precip Events Conditions
12:15 AM 67.5 °F - 53.6 °F 61% 30.12 in 10.0 mi SSW 9.2 mph - N/A   Clear
12:35 AM 67.5 °F - 53.8 °F 61% 30.12 in 10.0 mi SW 3.5 mph - N/A   Clear
12:55 AM 67.1 °F - 54.0 °F 63% 30.12 in 10.0 mi Calm Calm - N/A   Clear
1:15 AM 66.6 °F - 53.8 °F 63% 30.12 in 10.0 mi SSW 8.1 mph - N/A   Clear
1:35 AM 66.4 °F - 54.0 °F 64% 30.12 in 10.0 mi SSW 5.8 mph - N/A   Clear
1:55 AM 64.0 °F - 53.8 °F 69% 30.12 in 10.0 mi SSW 4.6 mph - N/A   Clear
2:15 AM 63.5 °F - 54.0 °F 71% 30.11 in 10.0 mi Calm Calm - N/A   Clear
2:35 AM 61.7 °F - 53.6 °F 75% 30.11 in 10.0 mi Calm Calm - N/A   Clear
2:55 AM 61.5 °F - 53.8 °F 76% 30.10 in 10.0 mi Calm Calm - N/A   Clear
3:15 AM 62.8 °F - 53.8 °F 72% 30.10 in 10.0 mi Calm Calm - N/A   Clear
3:35 AM 62.1 °F - 53.8 °F 74% 30.09 in 10.0 mi South 3.5 mph - N/A   Clear
3:55 AM 61.3 °F - 53.8 °F 76% 30.09 in 10.0 mi Calm Calm - N/A   Clear
4:15 AM 61.3 °F - 53.6 °F 76% 30.10 in 10.0 mi Calm Calm - N/A   Clear
4:35 AM 61.3 °F - 53.8 °F 76% 30.09 in 10.0 mi Calm Calm - N/A   Clear
4:55 AM 57.6 °F - 53.1 °F 85% 30.09 in 10.0 mi South 4.6 mph - N/A   Clear
5:15 AM 59.0 °F - 53.4 °F 82% 30.09 in 10.0 mi Calm Calm - N/A   Clear
5:35 AM 58.3 °F - 53.6 °F 84% 30.09 in 10.0 mi Calm Calm - N/A   Clear
5:55 AM 56.8 °F - 53.2 °F 88% 30.10 in 10.0 mi Calm Calm - N/A   Clear
6:15 AM 57.4 °F - 53.4 °F 87% 30.10 in 10.0 mi NE 3.5 mph - N/A   Clear
6:35 AM 57.2 °F - 53.2 °F 87% 30.10 in 10.0 mi Calm Calm - N/A   Clear
6:55 AM 56.8 °F - 53.2 °F 88% 30.10 in 10.0 mi SE 3.5 mph - N/A   Clear
7:15 AM 52.2 °F - 49.6 °F 91% 30.11 in 5.0 mi Calm Calm - N/A   Clear
7:35 AM 54.7 °F - 52.7 °F 93% 30.12 in 10.0 mi Calm Calm - N/A   Clear
7:55 AM 55.6 °F - 52.9 °F 91% 30.12 in 10.0 mi Calm Calm - N/A   Clear
8:15 AM 58.1 °F - 54.5 °F 88% 30.12 in 10.0 mi Calm Calm - N/A   Clear
8:35 AM 60.3 °F - 55.0 °F 83% 30.12 in 10.0 mi Calm Calm - N/A   Clear
8:55 AM 61.2 °F - 55.2 °F 81% 30.12 in 10.0 mi Calm Calm - N/A   Clear
9:15 AM 63.0 °F - 55.4 °F 76% 30.13 in 10.0 mi Calm Calm - N/A   Clear
9:35 AM 64.9 °F - 55.8 °F 72% 30.13 in 10.0 mi South 3.5 mph - N/A   Clear
9:55 AM 66.9 °F - 56.3 °F 69% 30.12 in 10.0 mi Calm Calm - N/A   Clear
10:15 AM 68.9 °F - 56.8 °F 65% 30.13 in 10.0 mi SE 3.5 mph - N/A   Clear
10:35 AM 71.8 °F - 57.6 °F 61% 30.12 in 10.0 mi South 8.1 mph - N/A   Clear
10:55 AM 73.6 °F - 57.4 °F 57% 30.12 in 10.0 mi South 11.5 mph - N/A   Clear
11:15 AM 76.3 °F - 57.7 °F 53% 30.12 in 10.0 mi SSW 10.4 mph - N/A   Clear
11:35 AM 77.2 °F - 57.4 °F 50% 30.12 in 10.0 mi SSW 12.7 mph 20.7 mph N/A   Clear
11:55 AM 78.4 °F - 57.0 °F 48% 30.12 in 10.0 mi SSW 12.7 mph 20.7 mph N/A   Clear
12:15 PM 78.4 °F - 56.8 °F 47% 30.12 in 10.0 mi SSW 13.8 mph 21.9 mph N/A   Clear
12:35 PM 79.9 °F - 57.6 °F 46% 30.12 in 10.0 mi South 16.1 mph 24.2 mph N/A   Clear
1:15 PM 81.3 °F 81.2 °F 57.0 °F 43% 30.10 in 10.0 mi SSW 16.1 mph 21.9 mph N/A   Clear
1:35 PM 81.1 °F 81.1 °F 56.7 °F 43% 30.09 in 10.0 mi South 10.4 mph 21.9 mph N/A   Clear
1:55 PM 81.3 °F 81.1 °F 56.3 °F 42% 30.08 in 10.0 mi SSW 11.5 mph 21.9 mph N/A   Clear
2:15 PM 82.2 °F 81.8 °F 56.7 °F 41% 30.08 in 10.0 mi South 11.5 mph 21.9 mph N/A   Clear
2:35 PM 82.6 °F 82.0 °F 56.3 °F 40% 30.07 in 10.0 mi SSW 11.5 mph 26.5 mph N/A   Clear
2:55 PM 82.6 °F 82.0 °F 55.8 °F 40% 30.06 in 10.0 mi SSW 12.7 mph 24.2 mph N/A   Clear
3:15 PM 83.3 °F 82.3 °F 55.4 °F 38% 30.06 in 10.0 mi SSW 5.8 mph 23.0 mph N/A   Clear
3:35 PM 83.1 °F 82.2 °F 55.4 °F 38% 30.05 in 10.0 mi South 6.9 mph 25.3 mph N/A   Clear
3:55 PM 83.5 °F 82.5 °F 55.0 °F 38% 30.04 in 10.0 mi South 9.2 mph 24.2 mph N/A   Clear
4:15 PM 84.0 °F 82.9 °F 55.2 °F 37% 30.03 in 10.0 mi SSW 9.2 mph 18.4 mph N/A   Clear
4:35 PM 83.7 °F 82.7 °F 55.6 °F 38% 30.02 in 10.0 mi South 16.1 mph 24.2 mph N/A   Clear
4:55 PM 84.0 °F 82.9 °F 55.0 °F 37% 30.01 in 10.0 mi SSW 6.9 mph 17.3 mph N/A   Clear
5:15 PM 82.8 °F - 52.5 °F 35% 30.01 in 10.0 mi SSW 11.5 mph 21.9 mph N/A   Clear
5:35 PM 82.8 °F 81.7 °F 54.3 °F 37% 30.00 in 10.0 mi South 8.1 mph 20.7 mph N/A   Clear
5:55 PM 82.2 °F 81.4 °F 54.3 °F 38% 30.00 in 10.0 mi SSW 16.1 mph 23.0 mph N/A   Clear
6:15 PM 81.5 °F 80.8 °F 53.8 °F 38% 30.00 in 10.0 mi SSW 15.0 mph 23.0 mph N/A   Clear
6:35 PM 81.0 °F 80.6 °F 54.5 °F 40% 29.99 in 10.0 mi SW 11.5 mph 20.7 mph N/A   Clear
6:55 PM 80.4 °F 80.2 °F 54.1 °F 40% 29.99 in 10.0 mi SW 6.9 mph 21.9 mph N/A   Clear
7:15 PM 79.3 °F - 54.5 °F 42% 29.98 in 10.0 mi South 10.4 mph 21.9 mph N/A   Clear
7:35 PM 78.8 °F - 54.7 °F 43% 29.98 in 10.0 mi South 5.8 mph 21.9 mph N/A   Clear
7:55 PM 77.4 °F - 55.0 °F 46% 29.98 in 10.0 mi SSW 6.9 mph 19.6 mph N/A   Clear
8:15 PM 76.5 °F - 54.9 °F 47% 29.98 in 10.0 mi South 5.8 mph - N/A   Clear
8:35 PM 75.6 °F - 54.5 °F 48% 29.98 in 10.0 mi South 5.8 mph - N/A   Clear
8:55 PM 74.5 °F - 54.3 °F 49% 29.98 in 10.0 mi South 5.8 mph - N/A   Clear
9:15 PM 73.6 °F - 54.5 °F 51% 29.98 in 10.0 mi South 4.6 mph - N/A   Clear
9:35 PM 72.9 °F - 54.5 °F 52% 29.98 in 10.0 mi Calm Calm - N/A   Clear
9:55 PM 71.8 °F - 54.5 °F 54% 29.98 in 10.0 mi South 6.9 mph - N/A   Clear
10:15 PM 70.0 °F - 54.5 °F 58% 29.98 in 10.0 mi South 4.6 mph - N/A   Clear
10:35 PM 71.1 °F - 54.1 °F 55% 29.98 in 10.0 mi South 3.5 mph - N/A   Clear
10:55 PM 71.1 °F - 53.8 °F 54% 29.97 in 10.0 mi SSE 4.6 mph - N/A   Clear
11:15 PM 70.3 °F - 54.0 °F 56% 29.98 in 10.0 mi SSW 3.5 mph - N/A   Clear
11:35 PM 70.3 °F - 53.8 °F 56% 29.97 in 10.0 mi South 3.5 mph - N/A   Clear
11:55 PM 68.0 °F - 54.3 °F 62% 29.98 in 10.0 mi SSW 10.4 mph - N/A   Clear